Overview Statistics Trail Chart Weather Telemetry Raw packets
 

This is the latest recevied weather packets stored in our database for station/object KC9DRE. If no packets are shown the sender has not sent any weather packets the latest 10 day(s).

<< 100 101 102 103 104 105 106 >>
Time Temp. Humidity Pressure Rain* Wind** Luminosity Snow
1777133621 20.56° C 71% 1012.5 hPa 0 mm - 252 W/m² -
1777133320 20.56° C 72% 1012.5 hPa 0 mm - 229 W/m² -
1777133020 20.56° C 73% 1012.6 hPa 0 mm - 292 W/m² -
1777132717 20° C 74% 1012.6 hPa 0 mm - 733 W/m² -
1777132413 20° C 74% 1012.7 hPa 0 mm - 278 W/m² -
1777132111 20° C 75% 1012.6 hPa 0 mm - 221 W/m² -
1777131806 20° C 77% 1012.6 hPa 0 mm - 206 W/m² -
1777131503 20.56° C 74% 1012.6 hPa 0 mm - 318 W/m² -
1777131203 20° C 77% 1012.4 hPa 0 mm - 880 W/m² -
1777130898 19.44° C 76% 1012.5 hPa 0 mm - 303 W/m² -
1777130594 20° C 76% 1012.5 hPa 0 mm - 285 W/m² -
1777130291 20° C 78% 1012.4 hPa 0 mm - 583 W/m² -
1777129988 20.56° C 74% 1012.4 hPa 0 mm - 267 W/m² -
1777129688 20° C 76% 1012.5 hPa 0 mm - 796 W/m² -
1777129387 20° C 80% 1012.6 hPa 0 mm - 776 W/m² -
1777129082 19.44° C 77% 1012.5 hPa 0 mm - 784 W/m² -
1777128778 19.44° C 79% 1012.5 hPa 0 mm - 771 W/m² -
1777128475 18.89° C 80% 1012.4 hPa 0 mm - 773 W/m² -
1777128173 18.89° C 83% 1012.4 hPa 0 mm - 771 W/m² -
1777127871 18.33° C 85% 1012.2 hPa 0 mm - 776 W/m² -
1777127568 18.33° C 84% 1012.3 hPa 0 mm - 810 W/m² -
1777127263 18.33° C 86% 1012.4 hPa 0 mm - 780 W/m² -
1777126959 17.78° C 85% 1012.1 hPa 0 mm - 762 W/m² -
1777126656 17.78° C 87% 1012.3 hPa 0 mm - 663 W/m² -
1777126352 17.22° C 90% 1012.3 hPa 0 mm - 409 W/m² -

* Rain latest hour (hover to see other rain measurements)
** Current wind speed in m/s (hover to see current wind gust speed)